Weather reports worldwide

Advertisment
Jamestown, nd, United States of America (2074583): temperature & dewpoint: 11.10.2018 01:00:00 - 17.10.2018 01:00:00 (CDT)Jamestown, nd, United States of America (2074583): wind speed & gusts: 11.10.2018 01:00:00 - 17.10.2018 01:00:00 (CDT)Jamestown, nd, United States of America (2074583): wind direction: 11.10.2018 01:00:00 - 17.10.2018 01:00:00 (CDT)Jamestown, nd, United States of America (2074583): reduced air pressure: 11.10.2018 01:00:00 - 17.10.2018 01:00:00 (CDT)Jamestown, nd, United States of America (2074583): visibility: 11.10.2018 01:00:00 - 17.10.2018 01:00:00 (CDT)Jamestown, nd, United States of America (2074583): precipitation: 11.10.2018 01:00:00 - 17.10.2018 01:00:00 (CDT)
Date & Time tt [°C] td [°C] ff [km/h] ff [kn] fx [km/h] fx [kn] dd ppp [hPa] vv [km] rr [mm]
17.10.2018 01:00:00 -2,8 -5,6 9 5 - - WNW 1026,8 16 -
17.10.2018 00:00:00 - - - - - - - - - -
16.10.2018 23:00:00 -2,2 -4,4 9 5 - - WNW 1025,8 16 -
16.10.2018 22:00:00 0,0 -3,3 9 5 - - N 1025,4 16 -
16.10.2018 21:00:00 0,6 -3,3 11 6 - - N 1024,8 16 -
16.10.2018 20:00:00 0,0 -3,9 9 5 - - N 1023,8 16 -
16.10.2018 19:00:00 3,3 -2,8 9 5 - - NNE 1022,6 16 -
16.10.2018 18:00:00 7,8 -2,2 15 8 - - N 1021,8 16 -
16.10.2018 17:00:00 8,9 -2,8 28 15 54 29 NNW 1021,1 16 -
16.10.2018 16:00:00 8,9 -2,8 34 18 57 31 NNW 1021,2 16 -
16.10.2018 15:00:00 8,9 -2,2 31 17 63 34 NW 1021,0 16 -
16.10.2018 14:00:00 9,4 -2,2 39 21 59 32 NW 1020,6 16 -
16.10.2018 13:00:00 8,9 -1,7 31 17 54 29 NW 1020,6 16 -
16.10.2018 12:00:00 8,3 -1,1 29 16 52 28 NNW 1020,4 16 -
16.10.2018 11:00:00 7,2 -1,7 39 21 52 28 NNW 1020,1 16 -
16.10.2018 10:00:00 5,0 0,0 22 12 - - NW 1019,6 16 -
16.10.2018 09:00:00 2,8 -0,6 16 9 - - WNW 1019,1 16 -
16.10.2018 08:00:00 1,7 -0,6 18 10 - - WNW 1018,5 16 -
16.10.2018 07:00:00 2,2 -0,6 16 9 - - WNW 1017,8 16 -
16.10.2018 06:00:00 2,8 0,0 16 9 - - WNW 1016,7 16 -
16.10.2018 05:00:00 3,3 0,6 16 9 - - WNW 1015,9 16 -
16.10.2018 04:00:00 3,9 0,6 18 10 - - WNW 1015,4 16 -
16.10.2018 03:00:00 5,6 1,1 18 10 - - WNW 1014,7 16 -
16.10.2018 02:00:00 6,1 1,1 21 11 - - WNW 1014,0 16 -
16.10.2018 01:00:00 7,8 1,1 22 12 - - WNW 1013,5 16 -
16.10.2018 00:00:00 8,3 1,1 16 9 - - WNW 1012,9 16 -
15.10.2018 23:00:00 8,9 0,6 18 10 - - W 1012,8 16 -
15.10.2018 22:00:00 8,3 0,0 16 9 - - W 1012,7 16 -
15.10.2018 21:00:00 8,9 0,6 16 9 - - W 1012,4 16 -
15.10.2018 20:00:00 9,4 0,0 24 13 - - W 1012,4 10 -
15.10.2018 19:00:00 8,9 -0,6 15 8 - - WSW 1012,9 16 -
15.10.2018 18:00:00 11,1 -1,1 29 16 - - WSW 1012,5 16 -
15.10.2018 17:00:00 10,6 -2,8 24 13 54 29 WSW 1013,4 16 -
15.10.2018 16:00:00 10,0 -3,3 29 16 57 31 WSW 1014,0 16 -
15.10.2018 15:00:00 10,0 -3,9 34 18 50 27 SW 1014,5 16 -
15.10.2018 14:00:00 8,9 -3,9 24 13 52 28 SSW 1015,9 16 -
15.10.2018 13:00:00 6,7 -6,1 29 16 48 26 SW 1017,4 16 -
15.10.2018 12:00:00 5,0 -6,7 31 17 - - WSW 1018,8 16 -
15.10.2018 11:00:00 2,8 -4,4 18 10 - - SW 1020,3 16 -
15.10.2018 10:00:00 -1,7 -5,6 16 9 - - WSW 1021,6 16 -
15.10.2018 09:00:00 -4,4 -6,7 13 7 - - W 1022,3 16 -
15.10.2018 08:00:00 -5,6 -7,2 15 8 - - WSW 1022,7 16 -
15.10.2018 07:00:00 -6,7 -7,8 8 4 - - SW 1022,9 16 -
15.10.2018 06:00:00 -6,1 -7,8 9 5 - - WSW 1023,3 16 -
15.10.2018 05:00:00 -6,1 -7,8 9 5 - - W 1023,7 16 -
15.10.2018 04:00:00 -5,6 -7,2 13 7 - - W 1023,9 16 -
15.10.2018 03:00:00 -5,6 -7,2 9 5 - - W 1024,3 16 -
15.10.2018 02:00:00 -5,0 -7,2 11 6 - - WNW 1024,6 16 -
15.10.2018 01:00:00 -3,3 -6,1 15 8 - - WNW 1024,6 16 -
15.10.2018 00:00:00 -1,1 -5,6 13 7 - - NW 1024,3 16 -
14.10.2018 23:00:00 -1,1 -5,0 15 8 - - NNW 1024,3 16 -
14.10.2018 22:00:00 -1,1 -5,0 18 10 48 26 NNW 1024,3 10 0,0
14.10.2018 21:00:00 -0,6 -6,1 35 19 48 26 NW 1023,9 15 0,0
14.10.2018 20:00:00 0,0 -6,1 24 13 - - NW 1023,5 16 -
14.10.2018 19:00:00 0,6 -6,1 26 14 52 28 NW 1022,7 16 -
14.10.2018 18:00:00 1,1 -7,2 31 17 52 28 WNW 1022,1 16 -
14.10.2018 17:00:00 1,1 -7,2 35 19 54 29 NW 1021,8 16 -
14.10.2018 16:00:00 1,1 -7,2 35 19 54 29 WNW 1022,0 16 -
14.10.2018 15:00:00 1,1 -6,7 37 20 57 31 WNW 1021,8 16 -
14.10.2018 14:00:00 1,1 -6,7 39 21 57 31 NW 1021,9 16 -
14.10.2018 13:00:00 0,6 -7,2 42 23 61 33 NW 1022,3 16 -
14.10.2018 12:00:00 0,0 -7,8 41 22 61 33 NW 1022,4 16 -
14.10.2018 11:00:00 -0,6 -7,8 34 18 57 31 WNW 1022,4 16 -
14.10.2018 10:00:00 -0,6 -7,8 34 18 63 34 NW 1022,1 16 -
14.10.2018 09:00:00 -1,1 -7,8 21 11 - - NW 1021,6 16 -
14.10.2018 08:00:00 -1,1 -7,8 28 15 - - NW 1021,5 16 -
14.10.2018 07:00:00 -0,6 -7,8 29 16 - - NW 1021,0 16 -
14.10.2018 06:00:00 -1,1 -7,8 28 15 48 26 WNW 1020,6 16 -
14.10.2018 05:00:00 -0,6 -7,2 28 15 - - NW 1019,9 16 -
14.10.2018 04:00:00 -1,1 -7,2 18 10 - - WNW 1019,4 16 -
14.10.2018 03:00:00 -1,1 -7,8 26 14 - - NW 1019,8 16 -
14.10.2018 02:00:00 -1,1 -6,7 21 11 - - WNW 1020,3 16 -
14.10.2018 01:00:00 -1,1 -6,1 26 14 - - WNW 1019,9 16 -
14.10.2018 00:00:00 -1,1 -6,7 28 15 - - NW 1019,1 16 -
13.10.2018 23:00:00 -0,6 -7,2 24 13 - - WNW 1019,1 16 -
13.10.2018 22:00:00 -0,6 -6,7 31 17 - - NW 1018,6 16 -
13.10.2018 21:00:00 0,0 -7,2 34 18 50 27 NW 1017,8 16 -
13.10.2018 20:00:00 -0,6 -6,7 22 12 - - NW 1017,1 16 -
13.10.2018 19:00:00 0,6 -6,7 29 16 50 27 NW 1015,7 16 -
13.10.2018 18:00:00 2,8 -6,1 21 11 54 29 NNW 1014,2 16 -
13.10.2018 17:00:00 3,3 -7,2 34 18 57 31 NNW 1013,2 16 -
13.10.2018 16:00:00 5,0 -7,8 28 15 57 31 NNW 1012,5 16 -
13.10.2018 15:00:00 5,6 -6,7 42 23 65 35 NW 1011,8 16 -
13.10.2018 14:00:00 3,3 -2,8 34 18 63 34 NW 1011,9 16 -
13.10.2018 13:00:00 4,4 -2,2 42 23 65 35 NW 1011,1 16 -
13.10.2018 12:00:00 5,0 -0,6 35 19 68 37 NW 1009,6 16 -
13.10.2018 11:00:00 3,9 0,0 54 29 76 41 NW 1008,2 16 -
13.10.2018 10:00:00 3,9 0,6 50 27 74 40 NW 1007,0 16 -
13.10.2018 09:00:00 5,6 2,2 44 24 68 37 NW 1004,7 16 -
13.10.2018 08:00:00 6,1 2,8 34 18 76 41 WNW 1003,2 16 -
13.10.2018 07:00:00 6,7 3,3 42 23 65 35 NW 1002,4 16 -
13.10.2018 06:00:00 7,2 2,8 28 15 - - W 1001,1 16 -
13.10.2018 05:00:00 6,7 1,7 24 13 - - SW 1000,4 16 -
13.10.2018 04:00:00 5,6 1,7 22 12 - - SSW 1000,8 16 -
13.10.2018 03:00:00 5,6 1,7 24 13 - - SSW 1001,2 16 -
13.10.2018 02:00:00 4,4 1,7 16 9 - - S 1002,3 16 0,0
13.10.2018 01:00:00 4,4 1,7 21 11 - - S 1002,9 16 -
13.10.2018 00:00:00 4,4 1,7 21 11 - - S 1003,8 16 -
12.10.2018 23:00:00 3,9 1,7 18 10 - - S 1004,8 16 -
12.10.2018 22:00:00 3,9 1,1 21 11 - - S 1005,5 16 -
12.10.2018 21:00:00 3,9 1,1 21 11 - - S 1006,7 16 -
12.10.2018 20:00:00 3,3 1,1 16 9 - - S 1007,4 16 -
12.10.2018 19:00:00 3,9 1,1 13 7 - - S 1008,4 16 -
12.10.2018 18:00:00 5,6 1,1 16 9 - - S 1008,8 16 -
12.10.2018 17:00:00 6,7 0,6 16 9 - - SW 1009,8 10 -
12.10.2018 16:00:00 5,6 0,6 15 8 - - SW 1010,8 16 -
12.10.2018 15:00:00 6,1 0,0 26 14 - - SW 1011,6 16 -
12.10.2018 14:00:00 6,1 -0,6 16 9 - - SW 1012,8 16 -
12.10.2018 13:00:00 5,6 -2,2 15 8 - - SW 1013,9 16 -
12.10.2018 12:00:00 4,4 -2,2 11 6 - - WSW 1015,0 16 -
12.10.2018 11:00:00 1,7 -2,8 8 4 - - SW 1015,8 16 -
12.10.2018 10:00:00 -1,1 -3,9 5 3 - - WSW 1016,4 16 -
12.10.2018 09:00:00 -5,0 -6,1 0 0 - - N 1017,1 16 -
12.10.2018 08:00:00 -5,6 -7,2 0 0 - - N 1017,1 16 -
12.10.2018 07:00:00 -6,1 -7,2 0 0 - - N 1017,2 16 -
12.10.2018 06:00:00 -6,1 -6,7 8 4 - - W 1017,5 16 -
12.10.2018 05:00:00 -7,8 -8,3 0 0 - - N 1017,7 16 -
12.10.2018 04:00:00 -8,3 -8,9 0 0 - - N 1018,1 16 -
12.10.2018 03:00:00 -6,7 -7,8 5 3 - - W 1018,5 16 -
12.10.2018 02:00:00 -7,2 -7,8 5 3 - - WSW 1018,7 16 -
12.10.2018 01:00:00 -6,1 -7,2 0 0 - - N 1018,8 16 -
12.10.2018 00:00:00 -6,7 -8,3 0 0 - - N 1019,3 16 -
11.10.2018 23:00:00 -3,9 -6,7 0 0 - - N 1019,0 16 -
11.10.2018 22:00:00 -5,6 -7,2 8 4 - - SSW 1019,1 16 -
11.10.2018 21:00:00 -5,0 -7,2 11 6 - - S 1019,0 16 -
11.10.2018 20:00:00 -3,3 -5,0 8 4 - - S 1019,0 16 -
11.10.2018 19:00:00 -0,6 -5,6 0 0 - - N 1018,9 16 -
11.10.2018 18:00:00 1,1 -5,0 9 5 - - WNW 1019,2 16 -
11.10.2018 17:00:00 1,1 -5,6 18 10 - - NW 1019,5 16 -
11.10.2018 16:00:00 0,6 -5,6 21 11 - - WNW 1020,0 16 -
11.10.2018 15:00:00 0,0 -5,6 22 12 - - WNW 1020,3 16 -
11.10.2018 14:00:00 -0,6 -5,6 22 12 - - WNW 1020,7 16 -
11.10.2018 13:00:00 -1,1 -6,1 22 12 - - WNW 1021,0 16 -
11.10.2018 12:00:00 -1,7 -6,1 24 13 - - NW 1021,1 16 -
11.10.2018 11:00:00 -2,2 -6,1 21 11 - - NW 1021,4 16 -
11.10.2018 10:00:00 -2,2 -5,0 26 14 - - NW 1021,0 16 -
11.10.2018 09:00:00 -2,2 -5,6 21 11 - - NW 1020,6 16 -
11.10.2018 08:00:00 -2,2 -5,6 26 14 - - NW 1020,4 16 -
11.10.2018 07:00:00 -2,2 -4,4 16 9 - - NW 1019,9 16 -
11.10.2018 06:00:00 -2,2 -4,4 18 10 - - NNW 1019,8 16 -
11.10.2018 05:00:00 -2,2 -4,4 18 10 - - NNW 1019,6 16 -
11.10.2018 04:00:00 -2,2 -4,4 26 14 48 26 NW 1019,6 16 -
11.10.2018 03:00:00 -1,7 -3,3 28 15 - - NW 1019,6 16 -
11.10.2018 02:00:00 -2,2 -4,4 28 15 50 27 NW 1019,2 16 0,0
11.10.2018 01:00:00 -1,7 -3,9 29 16 48 26 NW 1019,1 15 0,0

tt = temperature
td = dewpoint
ff = wind speed
fx = gusts
dd = wind direction
ppp = reduced air pressure
vv = visibility
rr = precipitation

Next stations